Home   Weather   Montevideo   Past weeks

Flag for Uruguay Past Weather in Montevideo, Uruguay — Yesterday and Last 2 Weeks

Now
68 °F

Clear.


Feels Like: 68 °F
Forecast: 61 / 69 °F
Wind: No wind

Location: Carrasco

Current Time: Dec 8, 2016 at 3:07:45 am

Latest Report: Dec 8, 2016 at 2:00 am


Visibility: 10 mi

Pressure: 29.83 "Hg

Humidity: 69%

Dew Point: 57 °F

Location of MontevideoLocation

Past Weather in Montevideo — Graph

°F

Montevideo Temperature Yesterday

Maximum temperature yesterday: 77 °F (at 10:00 am)
Minimum temperature yesterday: 59 °F (at 6:00 am)
Average temperature yesterday: 70 °F

High & Low Weather Summary for the Past Weeks

 TemperatureHumidityPressure
High90 °F (Dec 5, 3:00 pm)100% (Nov 26, 8:00 pm)30.21 "Hg (Nov 26, 8:00 pm)
Low50 °F (Nov 23, 5:00 am)28% (Nov 23, 2:00 pm)29.68 "Hg (Dec 5, 4:00 pm)
Average70 °F70%29.92 "Hg
* Reported Nov 23 2:00 am — Dec 8 2:00 am, Montevideo, Weather by CustomWeather, © 2016

Note: Actual official high and low records may vary slightly from our data, if they occured in-between our weather recording intervals... More about our weather records

Advertising

Montevideo Weather History for the Previous 24 Hours

Scroll right to see more
 ConditionsComfort  
Time TempWeatherWind HumidityBarometerVisibility
2:00 am
Thu, Dec 8
68 °FClear.No wind69%29.83 "Hg10 mi
1:00 am64 °FClear.No wind68%29.83 "Hg10 mi
12:00 am66 °FClear.No wind64%29.83 "Hg10 mi
11:00 pm
Wed, Dec 7
66 °FClear.No wind68%29.83 "Hg10 mi
10:00 pm68 °FClear.8 mph64%29.83 "Hg10 mi
9:00 pm70 °FClear.8 mph60%29.83 "Hg10 mi
8:00 pm72 °FClear.10 mph57%29.80 "Hg10 mi
7:00 pm72 °FSunny.10 mph53%29.83 "Hg10 mi
6:00 pm73 °FSunny.12 mph57%29.83 "Hg10 mi
5:00 pm73 °FSunny.9 mph61%29.83 "Hg10 mi
4:00 pm75 °FPassing clouds.10 mph57%29.83 "HgN/A
3:00 pm77 °FPassing clouds.10 mph57%29.83 "HgN/A
2:00 pm77 °FScattered clouds.12 mph57%29.83 "HgN/A
1:00 pm77 °FPartly sunny.12 mph54%29.83 "HgN/A
12:00 pm77 °FPartly sunny.7 mph57%29.83 "HgN/A
11:00 am75 °FPassing clouds.8 mph61%29.83 "HgN/A
10:00 am77 °FSunny.8 mph51%29.83 "Hg10 mi
9:00 am73 °FSunny.5 mph61%29.86 "Hg10 mi
8:00 am68 °FSunny.5 mph69%29.83 "Hg10 mi
7:00 am63 °FSunny.5 mph77%29.83 "Hg10 mi
6:00 am59 °FSunny.No wind88%29.83 "Hg10 mi
5:00 am63 °FClear.No wind77%29.80 "Hg10 mi
4:00 am63 °FClear.No wind83%29.80 "Hg10 mi
3:00 am64 °FClear.5 mph83%29.80 "Hg10 mi
Weather by CustomWeather, © 2016

See weather overviewHow to use our weather pages